Flag for Poland Weather past 2 weeks in Legnica, Poland

Now
80 °F

Passing clouds.


Feels Like: 81 °F
Forecast: 58 / 89 °F
Wind: 5 mph from Northwest

Location: Wroclaw Ii

Current Time: Jul 6, 2015 at 6:34:24 PM

Latest Report: Jul 6, 2015 at 5:00 PM


Visibility: 28 mi

Pressure: 30.08 "Hg

Humidity: 48%

Dew point: 59 °F

Location of LegnicaLocation

Historic Weather in Legnica — Graph

°F

Legnica temperature yesterday

Maximum temperature yesterday: 93 °F (at 5:00 PM)
Minimum temperature yesterday: 63 °F (at 4:00 AM)
Average temperature yesterday: 79 °F

Past Weeks' High & Low Weather Summary

 TemperatureHumidityPressure
High93 °F (Jul 4, 6:00 PM)98% (Jun 29, 6:00 AM)30.35 "Hg (Jun 29, 6:00 AM)
Low45 °F (Jun 25, 5:00 AM)20% (Jul 5, 5:00 PM)29.69 "Hg (Jun 23, 7:00 AM)
Average67 °F67%30.11 "Hg
* Reported Jun 21 5:00 PM — Jul 6 5:00 PM, Legnica, Weather by CustomWeather, © 2015

Note: Actual official high and low records may vary slightly from our data, if they occured in-between our weather recording intervals... More about our weather records

Advertising

Legnica weather history for previous 24 hours

 ConditionsComfort  
Time TempWeatherWind HumidityBarometerVisibility
5:00 PM
Mon, Jul 6
80 °FPassing clouds.5 mph48%30.08 "Hg28 mi
4:00 PM81 °FScattered clouds.7 mph47%30.08 "Hg25 mi
3:00 PM81 °FScattered clouds.8 mph53%30.07 "Hg25 mi
2:00 PM79 °FOvercast.6 mph64%30.08 "Hg25 mi
1:00 PM78 °FOvercast.6 mph66%30.07 "Hg25 mi
12:00 PM80 °FOvercast.7 mph59%30.05 "Hg25 mi
11:00 AM83 °FPartly sunny.7 mph54%30.03 "Hg25 mi
10:00 AM81 °FScattered clouds.3 mph56%30.01 "Hg25 mi
9:00 AM78 °FPartly sunny.3 mph63%30.00 "Hg22 mi
8:00 AM76 °FOvercast.2 mph69%30.00 "Hg22 mi
7:00 AM74 °FOvercast.3 mph73%29.97 "Hg25 mi
6:00 AM72 °FOvercast.2 mph74%29.99 "Hg25 mi
4:00 AM68 °FPassing clouds.1 mph80%29.96 "Hg31 mi
3:00 AM68 °FPassing clouds.2 mph80%29.93 "Hg31 mi
2:00 AM69 °FPassing clouds.3 mph80%29.93 "Hg31 mi
1:00 AM70 °FPassing clouds.3 mph79%29.94 "Hg31 mi
12:00 AM72 °FPassing clouds.2 mph70%29.95 "Hg31 mi
11:00 PM
Sun, Jul 5
75 °FPassing clouds.2 mph62%29.95 "Hg31 mi
10:00 PM76 °FPassing clouds.3 mph61%29.96 "Hg31 mi
9:00 PM80 °FPartly sunny.3 mph53%29.94 "Hg31 mi
8:00 PM85 °FPartly sunny.3 mph44%29.95 "Hg31 mi
7:00 PM91 °FScattered clouds.3 mph33%29.98 "Hg31 mi
6:00 PM92 °FScattered clouds.3 mph25%29.98 "Hg31 mi
Weather by CustomWeather, © 2015

See weather overviewHow to use our weather pages